N6GIW Weather Reports


time (UTC)temp
C
wind
direction
speed
KPH
gust
KPH
rain 1hr
cm
rain 24hr
cm
rain mn
cm
humidity
%
barometer
mb
20260831030004 28 217 8.0 16.1 0.00 0.00 0.00 38 1019.9
20260831025504 28 189 8.0 14.5 0.00 0.00 0.00 38 1019.9
20260831025004 28 216 4.8 12.9 0.00 0.00 0.00 37 1020.0
20260831024504 28 211 9.7 14.5 0.00 0.00 0.00 35 1019.7
20260831024003 29 205 9.7 19.3 0.00 0.00 0.00 33 1019.6
20260831023503 29 209 9.7 16.1 0.00 0.00 0.00 32 1019.4
20260831023004 29 209 6.4 12.9 0.00 0.00 0.00 30 1019.3
20260831022504 30 215 6.4 19.3 0.00 0.00 0.00 31 1019.4
20260831022004 30 224 12.9 25.7 0.00 0.00 0.00 31 1019.3
20260831021503 30 210 11.3 20.9 0.00 0.00 0.00 31 1019.3
20260831021003 30 221 9.7 22.5 0.00 0.00 0.00 29 1019.2
20260831020503 30 224 9.7 19.3 0.00 0.00 0.00 28 1019.2
20260831020004 31 232 9.7 20.9 0.00 0.00 0.00 28 1019.1
20260831015503 31 227 11.3 24.1 0.00 0.00 0.00 28 1019.1
20260831015004 31 228 14.5 24.1 0.00 0.00 0.00 28 1019.0
20260831014503 31 207 17.7 27.4 0.00 0.00 0.00 29 1019.1
20260831014005 31 224 9.7 20.9 0.00 0.00 0.00 28 1019.1
20260831013503 31 205 17.7 29.0 0.00 0.00 0.00 27 1019.1
20260831012503 31 213 20.9 40.2 0.00 0.00 0.00 27 1019.3
20260831012004 32 218 19.3 32.2 0.00 0.00 0.00 28 1019.5
20260831011504 32 245 19.3 29.0 0.00 0.00 0.00 29 1019.5
20260831010004 32 222 20.9 29.0 0.00 0.00 0.00 27 1019.6
20260831005503 32 218 20.9 32.2 0.00 0.00 0.00 26 1019.4
20260831005004 32 217 20.9 37.0 0.00 0.00 0.00 26 1019.6
20260831004504 33 206 20.9 33.8 0.00 0.00 0.00 27 1019.4
20260831004003 33 206 20.9 37.0 0.00 0.00 0.00 25 1019.5
20260831003004 33 213 20.9 32.2 0.00 0.00 0.00 24 1019.4
20260831002504 33 234 22.5 35.4 0.00 0.00 0.00 24 1019.4
20260831001004 33 227 24.1 33.8 0.00 0.00 0.00 21 1019.4
20260831000503 33 211 20.9 35.4 0.00 0.00 0.00 21 1019.4
20260831000004 33 234 24.1 32.2 0.00 0.00 0.00 20 1019.4
20260830235503 34 219 24.1 33.8 0.00 0.00 0.00 20 1019.3
20260830235004 33 199 29.0 45.1 0.00 0.00 0.00 17 1019.4
20260830234504 34 206 25.7 41.8 0.00 0.00 0.00 20 1019.5
20260830234003 34 220 19.3 38.6 0.00 0.00 0.00 19 1019.4
20260830233503 34 200 19.3 32.2 0.00 0.00 0.00 18 1019.5
20260830233004 34 215 19.3 35.4 0.00 0.00 0.00 19 1019.4
20260830231504 34 200 24.1 37.0 0.00 0.00 0.00 20 1019.5
20260830230503 34 193 25.7 37.0 0.00 0.00 0.00 19 1019.7
20260830230004 34 197 22.5 41.8 0.00 0.00 0.00 18 1019.8
20260830225503 34 205 22.5 33.8 0.00 0.00 0.00 20 1019.7
20260830225003 35 196 22.5 37.0 0.00 0.00 0.00 18 1019.9
20260830224504 35 202 19.3 32.2 0.00 0.00 0.00 19 1019.8
20260830224004 35 198 19.3 35.4 0.00 0.00 0.00 19 1020.1
20260830223504 34 207 20.9 45.1 0.00 0.00 0.00 19 1020.1
20260830223004 35 192 20.9 48.3 0.00 0.00 0.00 21 1020.1
20260830222004 35 222 22.5 32.2 0.00 0.00 0.00 18 1020.3
20260830221004 34 189 22.5 33.8 0.00 0.00 0.00 21 1020.5
20260830220504 35 190 24.1 41.8 0.00 0.00 0.00 22 1020.6
20260830220004 35 197 19.3 32.2 0.00 0.00 0.00 21 1020.7
20260830215005 35 199 20.9 32.2 0.00 0.00 0.00 22 1020.8
20260830214503 34 198 19.3 38.6 0.00 0.00 0.00 22 1021.0
20260830214004 34 194 22.5 38.6 0.00 0.00 0.00 22 1021.0
20260830213504 35 190 22.5 35.4 0.00 0.00 0.00 21 1021.2
20260830213004 34 198 16.1 40.2 0.00 0.00 0.00 22 1021.2
20260830212503 34 172 22.5 38.6 0.00 0.00 0.00 22 1021.4
20260830212004 34 165 16.1 33.8 0.00 0.00 0.00 23 1021.5
20260830211503 34 191 20.9 41.8 0.00 0.00 0.00 22 1021.6
20260830211004 34 180 19.3 41.8 0.00 0.00 0.00 22 1021.7
20260830210503 34 182 20.9 29.0 0.00 0.00 0.00 22 1021.7
20260830210004 34 202 16.1 25.7 0.00 0.00 0.00 23 1021.8
20260830205503 34 217 19.3 29.0 0.00 0.00 0.00 23 1021.9
20260830205004 34 185 20.9 32.2 0.00 0.00 0.00 23 1022.2
20260830204505 34 186 16.1 25.7 0.00 0.00 0.00 23 1022.2
20260830204004 34 166 17.7 27.4 0.00 0.00 0.00 24 1022.1
20260830203504 33 187 12.9 27.4 0.00 0.00 0.00 22 1022.2
20260830203004 34 168 14.5 20.9 0.00 0.00 0.00 24 1022.3
20260830202504 33 158 9.7 32.2 0.00 0.00 0.00 25 1022.3
20260830202004 33 152 9.7 32.2 0.00 0.00 0.00 24 1022.2
20260830201504 33 173 17.7 25.7 0.00 0.00 0.00 24 1022.2
20260830201003 34 204 14.5 24.1 0.00 0.00 0.00 23 1022.2
20260830200504 34 168 16.1 32.2 0.00 0.00 0.00 24 1022.3
20260830200004 34 169 22.5 33.8 0.00 0.00 0.00 24 1022.3
20260830195504 34 171 16.1 32.2 0.00 0.00 0.00 24 1022.2
20260830195003 33 172 19.3 38.6 0.00 0.00 0.00 24 1022.1
20260830194504 33 212 16.1 27.4 0.00 0.00 0.00 23 1022.2
20260830194004 33 192 14.5 32.2 0.00 0.00 0.00 23 1022.2
20260830193004 33 199 19.3 29.0 0.00 0.00 0.00 22 1022.6
20260830192504 33 181 19.3 32.2 0.00 0.00 0.00 22 1022.5
20260830192003 33 185 16.1 24.1 0.00 0.00 0.00 23 1022.6
20260830191503 33 185 19.3 27.4 0.00 0.00 0.00 23 1022.6
20260830191003 33 195 19.3 32.2 0.00 0.00 0.00 23 1022.6
20260830190504 33 185 14.5 22.5 0.00 0.00 0.00 24 1022.9
20260830190003 33 196 12.9 22.5 0.00 0.00 0.00 24 1022.8
20260830185504 33 194 8.0 24.1 0.00 0.00 0.00 23 1022.9
20260830184503 33 208 8.0 22.5 0.00 0.00 0.00 24 1022.8
20260830184004 33 195 11.3 19.3 0.00 0.00 0.00 24 1022.9
20260830183504 33 162 8.0 22.5 0.00 0.00 0.00 24 1023.0
20260830183004 33 162 1.6 8.0 0.00 0.00 0.00 26 1023.0
20260830182504 32 144 3.2 11.3 0.00 0.00 0.00 26 1023.0
20260830182003 32 299 1.6 8.0 0.00 0.00 0.00 26 1023.1
20260830181504 33 145 3.2 11.3 0.00 0.00 0.00 26 1023.1
20260830181004 33 126 6.4 12.9 0.00 0.00 0.00 26 1023.1
20260830180504 32 93 3.2 11.3 0.00 0.00 0.00 26 1023.0
20260830175504 32 122 0.0 11.3 0.00 0.00 0.00 27 1023.1
20260830174004 32 100 1.6 14.5 0.00 0.00 0.00 27 1023.1
20260830173004 32 126 4.8 9.7 0.00 0.00 0.00 27 1023.0
20260830172504 31 115 1.6 9.7 0.00 0.00 0.00 28 1023.2
20260830172004 32 115 1.6 4.8 0.00 0.00 0.00 28 1023.2
20260830171504 32 99 1.6 4.8 0.00 0.00 0.00 28 1023.0
20260830171004 31 162 0.0 11.3 0.00 0.00 0.00 28 1023.0
20260830170503 31 120 1.6 19.3 0.00 0.00 0.00 29 1023.0
20260830170004 31 102 1.6 4.8 0.00 0.00 0.00 29 1023.1
20260830165504 31 94 1.6 4.8 0.00 0.00 0.00 28 1023.1
20260830165004 31 97 1.6 4.8 0.00 0.00 0.00 30 1023.0
20260830164503 31 86 1.6 4.8 0.00 0.00 0.00 30 1022.9
20260830164004 30 95 1.6 4.8 0.00 0.00 0.00 30 1022.9
20260830163504 30 70 1.6 4.8 0.00 0.00 0.00 31 1023.1
20260830163004 30 69 0.0 3.2 0.00 0.00 0.00 31 1022.9
20260830162503 30 85 1.6 4.8 0.00 0.00 0.00 31 1022.9
20260830162004 30 100 0.0 4.8 0.00 0.00 0.00 31 1023.0
20260830161504 30 84 0.0 4.8 0.00 0.00 0.00 32 1022.9
20260830161005 29 86 0.0 3.2 0.00 0.00 0.00 32 1023.0
20260830160504 29 83 0.0 1.6 0.00 0.00 0.00 33 1023.0
20260830160004 29 75 0.0 0.0 0.00 0.00 0.00 33 1023.0
20260830155004 28 93 0.0 0.0 0.00 0.00 0.00 34 1023.0
20260830154504 28 92 0.0 0.0 0.00 0.00 0.00 34 1022.9
20260830154004 28 92 0.0 0.0 0.00 0.00 0.00 34 1022.9
20260830153503 28 44 0.0 3.2 0.00 0.00 0.00 34 1022.9
20260830153004 28 98 0.0 0.0 0.00 0.00 0.00 34 1022.9
20260830152504 28 98 0.0 0.0 0.00 0.00 0.00 34 1023.0
20260830152004 28 225 0.0 0.0 0.00 0.00 0.00 35 1023.0
20260830151504 28 226 0.0 0.0 0.00 0.00 0.00 35 1022.9
20260830151004 27 226 0.0 0.0 0.00 0.00 0.00 36 1023.0
20260830150003 27 226 0.0 0.0 0.00 0.00 0.00 38 1022.9
20260830145004 26 231 0.0 0.0 0.00 0.00 0.00 39 1022.9
20260830144504 26 236 0.0 0.0 0.00 0.00 0.00 39 1022.9
20260830144004 25 237 0.0 0.0 0.00 0.00 0.00 40 1022.8
20260830143504 25 237 0.0 0.0 0.00 0.00 0.00 40 1022.8
20260830143004 25 237 0.0 0.0 0.00 0.00 0.00 41 1022.7
20260830141505 23 261 0.0 0.0 0.00 0.00 0.00 44 1022.7
20260830141003 22 261 0.0 0.0 0.00 0.00 0.00 46 1022.7
20260830140504 22 261 0.0 0.0 0.00 0.00 0.00 47 1022.7
20260830140004 21 261 0.0 0.0 0.00 0.00 0.00 48 1022.6
20260830135504 20 261 0.0 0.0 0.00 0.00 0.00 49 1022.6
20260830135004 20 261 0.0 0.0 0.00 0.00 0.00 50 1022.6
20260830134504 20 261 0.0 0.0 0.00 0.00 0.00 51 1022.5
20260830134004 19 261 0.0 0.0 0.00 0.00 0.00 51 1022.5
20260830133504 19 261 0.0 0.0 0.00 0.00 0.00 50 1022.4
20260830132504 19 261 0.0 0.0 0.00 0.00 0.00 50 1022.2
20260830132004 20 261 0.0 0.0 0.00 0.00 0.00 49 1022.3
20260830131504 20 261 0.0 0.0 0.00 0.00 0.00 49 1022.2
20260830130504 20 261 0.0 0.0 0.00 0.00 0.00 48 1022.2
20260830125504 20 261 0.0 0.0 0.00 0.00 0.00 48 1022.1
20260830125004 20 261 0.0 0.0 0.00 0.00 0.00 48 1022.0
20260830124004 21 261 0.0 0.0 0.00 0.00 0.00 48 1021.9
20260830123504 21 261 0.0 0.0 0.00 0.00 0.00 48 1021.8
20260830123004 21 261 0.0 0.0 0.00 0.00 0.00 48 1021.8
20260830122504 21 262 0.0 0.0 0.00 0.00 0.00 48 1021.9
20260830121504 20 262 0.0 0.0 0.00 0.00 0.00 47 1021.8
20260830121004 21 262 0.0 0.0 0.00 0.00 0.00 47 1021.8
20260830120504 21 262 0.0 0.0 0.00 0.00 0.00 47 1021.8
20260830115503 21 265 0.0 0.0 0.00 0.00 0.00 47 1021.7
20260830115005 21 265 0.0 0.0 0.00 0.00 0.00 47 1021.6
20260830114504 21 265 0.0 0.0 0.00 0.00 0.00 46 1021.6
20260830114003 21 279 0.0 0.0 0.00 0.00 0.00 47 1021.6
20260830113504 21 279 0.0 0.0 0.00 0.00 0.00 47 1021.5
20260830113004 21 279 0.0 0.0 0.00 0.00 0.00 47 1021.4
20260830112503 21 322 0.0 0.0 0.00 0.00 0.00 47 1021.4
20260830112004 21 322 0.0 0.0 0.00 0.00 0.00 48 1021.4
20260830111504 21 330 0.0 0.0 0.00 0.00 0.00 47 1021.4
20260830111004 21 330 0.0 0.0 0.00 0.00 0.00 47 1021.4
20260830110503 21 332 0.0 0.0 0.00 0.00 0.00 47 1021.1
20260830110005 21 331 0.0 0.0 0.00 0.00 0.00 48 1021.2
20260830105503 21 332 0.0 0.0 0.00 0.00 0.00 47 1021.2
20260830105004 21 332 0.0 0.0 0.00 0.00 0.00 47 1021.3
20260830104504 21 333 0.0 0.0 0.00 0.00 0.00 46 1021.1
20260830104003 21 215 0.0 0.0 0.00 0.00 0.00 46 1021.1
20260830103503 21 215 0.0 0.0 0.00 0.00 0.00 46 1021.0
20260830103004 21 215 0.0 0.0 0.00 0.00 0.00 46 1021.1
20260830102004 21 215 0.0 0.0 0.00 0.00 0.00 46 1021.2
20260830101504 22 215 0.0 0.0 0.00 0.00 0.00 46 1021.2
20260830101004 22 215 0.0 0.0 0.00 0.00 0.00 45 1021.1
20260830100503 22 215 0.0 0.0 0.00 0.00 0.00 46 1021.1
20260830100005 22 215 0.0 0.0 0.00 0.00 0.00 45 1021.1
20260830095503 22 215 0.0 0.0 0.00 0.00 0.00 45 1020.9
20260830095004 22 215 0.0 0.0 0.00 0.00 0.00 46 1020.9
20260830094504 22 215 0.0 0.0 0.00 0.00 0.00 46 1020.9
20260830094004 22 215 0.0 0.0 0.00 0.00 0.00 46 1020.9
20260830093504 22 215 0.0 0.0 0.00 0.00 0.00 46 1021.0
20260830093004 22 215 0.0 0.0 0.00 0.00 0.00 46 1021.0
20260830092504 22 215 0.0 1.6 0.00 0.00 0.00 46 1021.0
20260830091503 22 207 0.0 0.0 0.00 0.00 0.00 45 1021.0
20260830091004 22 207 0.0 0.0 0.00 0.00 0.00 45 1021.0
20260830090505 22 207 0.0 0.0 0.00 0.00 0.00 45 1021.0
20260830085504 23 205 0.0 0.0 0.00 0.00 0.00 44 1021.1
20260830085004 23 205 0.0 0.0 0.00 0.00 0.00 44 1021.2
20260830084504 23 262 0.0 0.0 0.00 0.00 0.00 43 1021.2
20260830084004 23 262 0.0 0.0 0.00 0.00 0.00 43 1021.2
20260830083504 23 262 0.0 0.0 0.00 0.00 0.00 43 1021.3
20260830083005 23 262 0.0 0.0 0.00 0.00 0.00 43 1021.3
20260830082004 24 184 0.0 4.8 0.00 0.00 0.00 43 1021.1
20260830081504 24 196 0.0 4.8 0.00 0.00 0.00 43 1021.2
20260830080503 24 222 0.0 0.0 0.00 0.00 0.00 42 1021.4
20260830080004 25 261 0.0 0.0 0.00 0.00 0.00 41 1021.4
20260830075504 25 294 0.0 0.0 0.00 0.00 0.00 42 1021.5
20260830075005 24 294 0.0 0.0 0.00 0.00 0.00 43 1021.5
20260830073504 24 181 0.0 0.0 0.00 0.00 0.00 42 1021.5
20260830073004 24 181 0.0 0.0 0.00 0.00 0.00 41 1021.6
20260830072504 24 180 0.0 0.0 0.00 0.00 0.00 41 1021.6
20260830072004 25 181 0.0 0.0 0.00 0.00 0.00 39 1021.7
20260830071004 25 181 0.0 0.0 0.00 0.00 0.00 40 1021.6
20260830070504 25 180 0.0 1.6 0.00 0.00 0.00 40 1021.6
20260830070004 25 45 0.0 0.0 0.00 0.00 0.00 38 1021.7
20260830065504 26 45 0.0 0.0 0.00 0.00 0.00 39 1021.7
20260830065004 26 45 0.0 0.0 0.00 0.00 0.00 39 1021.5
20260830064004 25 45 0.0 0.0 0.00 0.00 0.00 40 1021.5
20260830063003 26 38 0.0 0.0 0.00 0.00 0.00 40 1021.7
20260830062004 26 38 0.0 0.0 0.00 0.00 0.00 38 1021.8
20260830061504 27 38 0.0 0.0 0.00 0.00 0.00 38 1021.7
20260830061004 27 38 0.0 0.0 0.00 0.00 0.00 39 1021.7
20260830060004 27 38 0.0 1.6 0.00 0.00 0.00 39 1021.8
20260830055504 27 355 1.6 8.0 0.00 0.00 0.00 39 1021.7
20260830055004 27 207 0.0 1.6 0.00 0.00 0.00 38 1021.7
20260830054504 27 200 0.0 0.0 0.00 0.00 0.00 38 1021.6
20260830054004 27 224 0.0 4.8 0.00 0.00 0.00 38 1021.5
20260830053504 27 232 0.0 4.8 0.00 0.00 0.00 38 1021.5
20260830053005 27 239 3.2 9.7 0.00 0.00 0.00 38 1021.5
20260830052505 28 235 1.6 9.7 0.00 0.00 0.00 37 1021.5
20260830052004 28 243 1.6 14.5 0.00 0.00 0.00 37 1021.5
20260830051003 28 241 3.2 11.3 0.00 0.00 0.00 37 1021.4
20260830050504 28 230 1.6 14.5 0.00 0.00 0.00 37 1021.4
20260830050005 28 229 8.0 16.1 0.00 0.00 0.00 37 1021.6
20260830045503 28 235 3.2 4.8 0.00 0.00 0.00 37 1021.6
20260830045004 28 223 3.2 11.3 0.00 0.00 0.00 37 1021.4
20260830044504 28 242 1.6 4.8 0.00 0.00 0.00 37 1021.4
20260830044004 28 222 3.2 11.3 0.00 0.00 0.00 37 1021.4
20260830043004 28 220 1.6 8.0 0.00 0.00 0.00 37 1021.4
20260830042503 28 210 3.2 14.5 0.00 0.00 0.00 37 1021.4
20260830042005 28 210 4.8 12.9 0.00 0.00 0.00 37 1021.4
20260830041504 28 223 1.6 9.7 0.00 0.00 0.00 37 1021.2
20260830041004 28 213 4.8 11.3 0.00 0.00 0.00 37 1021.1
20260830040504 29 227 4.8 11.3 0.00 0.00 0.00 36 1021.1
20260830040005 29 217 4.8 12.9 0.00 0.00 0.00 36 1021.0
20260830034504 29 218 1.6 12.9 0.00 0.00 0.00 36 1020.9
20260830034004 29 225 4.8 14.5 0.00 0.00 0.00 36 1020.9
20260830033504 30 229 3.2 14.5 0.00 0.00 0.00 36 1020.7
20260830033004 30 225 6.4 19.3 0.00 0.00 0.00 36 1020.7
20260830032503 30 227 3.2 12.9 0.00 0.00 0.00 36 1020.6
20260830031504 30 241 3.2 16.1 0.00 0.00 0.00 36 1020.3
20260830031004 30 234 3.2 14.5 0.00 0.00 0.00 36 1020.2
20260830030503 30 227 4.8 12.9 0.00 0.00 0.00 36 1020.3